{"data":{"norad_id":53600,"intl_designator":"2022-104N","name":"STARLINK-4677","alt_names":[],"object_type":"PAYLOAD","status":"ACTIVE","operator":null,"country":"US","launch_date":"2022-08-28","launch_site_code":"AFETR","launch_vehicle":null,"mission":null,"orbit_class":"UNKNOWN","rcs_meters":null,"size_class":null,"mass_kg":null,"dimensions":null,"purposes":["comms"],"wikipedia_slug":null,"has_3d_model":false,"image_url":null,"decayed_at":null,"tle_current":{"epoch":"2026-09-20T21:59:42.623520Z","epoch_age_seconds":42306,"freshness":"FRESH","line1":"1 53600U 22104N   26263.91646555  .00000873  00000+0  36990-4 0  9991","line2":"2 53600  53.1617  73.9767 0001455  87.8227 272.2943 15.34390922225272","mean_motion":15.34390922,"eccentricity":0.0001455,"inclination_deg":53.1617,"raan_deg":73.9767,"arg_perigee_deg":87.8227,"mean_anomaly_deg":272.2943,"bstar":3.699e-5,"rev_number":22527,"period_min":93.848313317902,"perigee_km":461.73487588842,"apogee_km":463.72556825005,"semimajor_km":6840.8672220692,"source":"CELESTRAK","updated_at":"2026-09-21T09:00:32.936460Z"}}}